User: anonymous
Location: Unspecified
(0.0000°N, 0.0000°E)
Time: 12:30:03
(UTC+00:00)
Language:

Tiangong 1 - Orbit

View from above orbital plane
View from above orbital plane
View from above satellite
View from above satellite

Ground track
Ground track

The orbit data is extracted from the following two-line orbital elements,

1 37820U 11053A   14107.09549787  .00050032  00000-0  43670-3 0  9434
2 37820 042.7729 321.8881 0012233 297.0039 202.1399 15.68070678146437
Epoch (UTC): 17 April 2014 02:17:31
Eccentricity: 0.0012233
inclination: 42.7729°
perigee height: 356 km
apogee height: 372 km
right ascension of ascending node: 321.8881°
argument of perigee: 297.0039°
revolutions per day: 15.68070678
mean anomaly at epoch: 202.1399°
orbit number at epoch: 14643

The dashed part of the orbit path shows where the satellite is in the earth's shadow,  

DLR